�N����,����,�~����,�C��,���x,�C��,����,���ϕ���,�ő�u�ԕ���,�ő厞����,���˗�,�I�_���x,�n�����x,�ő啗���N��,DTYPE
"21/01/31","00:10",0.0,0.4,87.7,1018.2,302.8,1.6,1.9,302.7,0.00,-1.4,5.5,"00:01:20",1
"21/01/31","00:20",0.0,0.7,88.2,1018.7,325.4,2.0,3.2,321.6,0.00,-1.0,5.5,"00:19:44",1
"21/01/31","00:30",0.0,0.4,88.5,1018.7,308.0,1.6,2.7,321.2,0.00,-1.2,5.4,"00:20:08",1
"21/01/31","00:40",0.0,0.5,89.0,1018.7,325.8,1.3,2.1,338.7,0.00,-1.1,5.4,"00:30:48",1
"21/01/31","00:50",0.0,0.3,89.4,1018.7,302.4,1.6,2.6,332.4,0.00,-1.2,5.2,"00:40:24",1
"21/01/31","01:00",0.0,0.5,89.9,1018.5,285.8,1.2,1.8,290.7,0.00,-0.9,5.2,"00:51:28",1
"21/01/31","01:10",0.0,0.9,90.1,1018.7,311.8,1.3,2.5,311.7,0.00,-0.5,5.2,"01:09:12",1
"21/01/31","01:20",0.0,1.1,90.3,1019.0,316.4,1.6,2.7,313.7,0.00,-0.3,5.2,"01:13:12",1
"21/01/31","01:30",0.0,1.3,90.6,1019.2,288.8,1.7,3.1,323.7,0.00,0.0,5.3,"01:28:32",1
"21/01/31","01:40",0.0,2.6,90.4,1019.2,299.4,2.8,5.6,324.1,0.00,1.2,5.3,"01:36:48",1
"21/01/31","01:50",0.0,3.2,89.5,1019.4,289.1,2.6,3.5,313.0,0.00,1.7,5.3,"01:40:56",1
"21/01/31","02:00",0.0,3.6,88.5,1019.7,303.0,3.4,5.5,322.0,0.00,1.9,5.3,"01:58:00",1
"21/01/31","02:10",0.0,3.9,87.1,1020.1,298.4,3.1,5.1,304.1,0.00,2.0,5.6,"02:07:28",1
"21/01/31","02:20",0.0,4.1,85.4,1020.1,294.7,3.4,4.9,316.6,0.00,1.9,5.4,"02:19:44",1
"21/01/31","02:30",0.0,4.4,83.4,1020.4,296.9,3.5,6.8,311.5,0.00,1.9,5.4,"02:21:28",1
"21/01/31","02:40",0.0,4.4,81.7,1020.4,276.8,2.2,3.7,307.5,0.00,1.6,5.5,"02:31:36",1
"21/01/31","02:50",0.0,4.2,80.5,1020.4,268.6,2.1,3.2,264.2,0.00,1.2,5.4,"02:48:48",1
"21/01/31","03:00",0.0,4.1,79.8,1020.6,266.7,2.1,3.6,262.9,0.00,1.0,5.5,"02:55:36",1
"21/01/31","03:10",0.0,4.0,79.3,1020.4,291.1,1.6,2.5,294.3,0.00,0.8,5.4,"03:06:00",1
"21/01/31","03:20",0.0,3.5,79.4,1020.6,331.8,1.6,3.3,333.8,0.00,0.3,5.3,"03:16:24",1
"21/01/31","03:30",0.0,3.2,80.2,1020.8,323.4,2.1,3.9,310.7,0.00,0.2,5.4,"03:20:02",1
"21/01/31","03:40",0.0,3.5,80.6,1020.6,316.6,3.0,3.9,316.9,0.00,0.5,5.3,"03:32:40",1
"21/01/31","03:50",0.0,2.9,81.4,1020.4,330.0,2.5,3.5,338.5,0.00,0.1,5.1,"03:40:32",1
"21/01/31","04:00",0.0,2.5,82.4,1020.4,325.9,2.2,3.5,321.3,0.00,-0.1,5.3,"03:56:56",1
"21/01/31","04:10",0.0,2.5,83.4,1020.6,320.7,1.6,3.1,336.5,0.00,0.0,5.2,"04:04:16",1
"21/01/31","04:20",0.0,2.5,84.3,1020.6,317.5,1.7,2.7,324.6,0.00,0.2,5.1,"04:17:04",1
"21/01/31","04:30",0.0,2.5,84.8,1020.6,311.6,1.2,2.1,313.3,0.00,0.2,5.1,"04:20:32",1
"21/01/31","04:40",0.0,2.5,85.6,1020.6,258.3,1.5,2.1,275.9,0.00,0.4,5.2,"04:32:48",1
"21/01/31","04:50",0.0,2.7,86.1,1020.8,320.3,2.3,3.4,320.6,0.00,0.7,5.2,"04:43:52",1
"21/01/31","05:00",0.0,2.7,86.5,1021.1,310.6,2.0,2.8,329.2,0.00,0.7,5.4,"04:50:32",1
"21/01/31","05:10",0.0,2.7,86.7,1021.1,292.1,1.5,1.8,310.5,0.00,0.7,4.9,"05:08:00",1
"21/01/31","05:20",0.0,2.6,87.1,1021.3,319.9,1.5,3.1,330.4,0.00,0.7,5.1,"05:18:40",1
"21/01/31","05:30",0.0,2.3,87.6,1021.3,314.9,1.3,2.5,336.0,0.00,0.5,5.3,"05:26:16",1
"21/01/31","05:40",0.0,2.3,88.1,1021.1,276.7,1.8,3.9,330.7,0.00,0.6,5.3,"05:38:16",1
"21/01/31","05:50",0.0,2.2,88.6,1021.3,305.0,1.8,3.1,322.8,0.00,0.6,5.1,"05:49:44",1
"21/01/31","06:00",0.0,2.3,88.9,1021.3,300.6,1.6,2.7,318.4,0.00,0.7,5.4,"05:50:08",1
"21/01/31","06:10",0.0,2.4,89.2,1021.8,287.3,1.2,1.8,288.2,0.00,0.8,5.4,"06:03:20",1
"21/01/31","06:20",0.0,2.7,89.5,1021.8,313.9,1.7,3.3,322.0,0.00,1.2,5.2,"06:18:24",1
"21/01/31","06:30",0.0,2.7,89.7,1022.0,308.2,0.8,1.6,300.9,0.00,1.2,5.4,"06:26:08",1
"21/01/31","06:40",0.0,2.7,90.0,1022.3,287.8,1.5,2.4,304.4,0.00,1.3,5.1,"06:36:24",1
"21/01/31","06:50",0.0,2.6,90.4,1022.5,318.2,1.6,2.2,326.9,0.00,1.2,5.2,"06:47:44",1
"21/01/31","07:00",0.0,2.8,90.7,1022.5,304.1,1.8,3.3,317.4,0.00,1.5,5.4,"06:50:02",1
"21/01/31","07:10",0.0,3.1,90.9,1022.7,292.2,1.3,2.9,322.6,0.00,1.8,5.4,"07:06:48",1
"21/01/31","07:20",0.0,3.3,90.9,1023.0,265.3,1.1,2.2,247.7,0.00,2.0,5.4,"07:13:52",1
"21/01/31","07:30",0.0,3.0,91.2,1023.0,323.6,2.5,3.1,319.3,0.00,1.7,5.5,"07:29:04",1
"21/01/31","07:40",0.0,3.2,91.6,1023.0,331.0,2.1,2.9,339.2,0.00,2.0,5.4,"07:30:40",1
"21/01/31","07:50",0.0,3.2,91.8,1023.0,318.9,1.8,2.6,333.2,0.01,2.0,5.3,"07:42:48",1
"21/01/31","08:00",0.0,3.7,92.0,1023.4,323.0,2.6,5.0,341.8,0.02,2.6,5.4,"07:56:48",1
"21/01/31","08:10",0.0,4.3,91.9,1023.4,314.7,2.3,5.1,328.2,0.03,3.1,5.8,"08:07:26",1
"21/01/31","08:20",0.0,4.7,91.7,1023.9,326.1,2.2,3.2,324.0,0.05,3.5,5.7,"08:14:58",1
"21/01/31","08:30",0.0,5.4,91.3,1024.1,311.9,2.3,3.4,325.9,0.10,4.1,5.4,"08:24:30",1
"21/01/31","08:40",0.0,5.9,90.2,1024.6,294.7,2.8,3.9,327.0,0.09,4.5,5.7,"08:39:16",1
"21/01/31","08:50",0.0,6.1,89.1,1024.6,304.6,3.4,5.0,334.3,0.11,4.5,5.8,"08:42:02",1
"21/01/31","09:00",0.0,6.3,87.6,1025.1,308.0,3.4,4.8,339.7,0.13,4.4,5.9,"08:50:16",1
"21/01/31","09:10",0.0,6.7,85.8,1025.1,303.6,3.1,4.4,322.4,0.16,4.5,6.1,"09:07:58",1
"21/01/31","09:20",0.0,7.1,84.1,1025.1,318.3,3.2,4.8,320.1,0.18,4.6,6.2,"09:12:08",1
"21/01/31","09:30",0.0,7.5,81.9,1024.9,292.2,2.8,4.4,311.1,0.22,4.7,6.3,"09:21:46",1
"21/01/31","09:40",0.0,7.8,79.6,1025.1,294.0,3.1,5.7,332.1,0.25,4.5,6.3,"09:32:18",1
"21/01/31","09:50",0.0,7.9,77.3,1025.3,294.7,3.1,5.7,335.2,0.27,4.2,6.5,"09:48:30",1
"21/01/31","10:00",0.0,8.4,75.3,1025.3,281.1,3.0,5.7,311.7,0.31,4.3,6.6,"09:51:04",1
"21/01/31","10:10",0.0,8.9,73.1,1025.1,294.2,2.7,5.2,338.2,0.32,4.4,7.1,"10:00:16",1
"21/01/31","10:20",0.0,8.9,71.4,1025.8,285.3,2.5,4.5,340.5,0.29,4.1,7.0,"10:15:36",1
"21/01/31","10:30",0.0,9.2,70.2,1025.8,289.4,2.2,3.6,258.6,0.35,4.1,7.3,"10:28:32",1
"21/01/31","10:40",0.0,9.2,67.8,1025.6,330.5,4.0,6.4,332.8,0.37,3.6,7.3,"10:35:28",1
"21/01/31","10:50",0.0,9.5,67.6,1025.3,286.6,2.8,5.1,313.8,0.40,3.9,7.6,"10:41:38",1
"21/01/31","11:00",0.0,9.8,67.1,1025.3,287.0,2.7,4.9,298.2,0.42,4.0,7.8,"10:52:00",1
"21/01/31","11:10",0.0,10.3,65.0,1025.1,275.6,2.5,4.7,261.6,0.46,4.1,8.2,"11:00:48",1
"21/01/31","11:20",0.0,10.4,63.2,1024.9,271.7,2.6,4.2,249.9,0.46,3.8,8.3,"11:10:16",1
"21/01/31","11:30",0.0,10.2,62.3,1025.1,325.8,2.7,6.0,334.2,0.34,3.4,8.4,"11:28:24",1
"21/01/31","11:40",0.0,9.9,62.1,1024.6,318.4,3.2,5.2,316.7,0.22,3.0,8.5,"11:32:48",1
"21/01/31","11:50",0.0,9.9,61.7,1024.6,321.7,3.5,5.6,328.4,0.27,2.9,8.7,"11:43:20",1
"21/01/31","12:00",0.0,10.0,61.6,1024.4,338.0,3.0,6.5,334.5,0.31,3.0,8.9,"11:51:36",1
"21/01/31","12:10",0.0,8.7,64.9,1024.6,354.2,3.9,7.9,344.8,0.12,2.5,8.7,"12:04:16",1
"21/01/31","12:20",0.0,7.4,71.8,1025.1,346.6,4.0,5.1,344.8,0.06,2.7,8.4,"12:12:16",1
"21/01/31","12:30",0.0,8.1,74.1,1024.6,354.6,1.2,2.2,97.0,0.38,3.8,8.8,"12:22:46",1
"21/01/31","12:40",0.0,7.9,74.4,1024.4,352.8,0.7,0.8,6.0,0.14,3.7,8.6,"12:35:44",1
"21/01/31","12:50",0.0,8.3,75.6,1023.7,345.6,2.0,3.5,358.1,0.27,4.3,8.7,"12:48:38",1
"21/01/31","13:00",0.0,9.1,73.8,1024.1,348.4,2.8,4.8,356.1,0.48,4.7,8.9,"12:51:54",1
"21/01/31","13:10",0.0,9.6,70.3,1024.1,339.7,3.1,6.0,331.0,0.46,4.5,9.0,"13:09:20",1
"21/01/31","13:20",0.0,9.7,67.3,1023.9,338.5,3.6,6.0,316.4,0.44,4.0,9.2,"13:16:00",1
"21/01/31","13:30",0.0,8.9,66.8,1024.1,333.8,3.4,5.8,336.7,0.10,3.1,9.2,"13:20:48",1
"21/01/31","13:40",0.0,8.8,66.5,1023.9,341.4,2.3,4.7,327.2,0.08,3.0,9.2,"13:38:24",1
"21/01/31","13:50",0.0,8.9,65.3,1023.7,317.9,3.0,8.0,343.5,0.16,2.8,9.0,"13:49:12",1
"21/01/31","14:00",0.0,9.8,61.7,1023.9,320.6,3.2,5.5,332.9,0.25,2.8,9.2,"13:52:16",1
"21/01/31","14:10",0.0,9.3,63.0,1023.9,332.2,3.6,6.0,337.0,0.11,2.7,9.1,"14:04:08",1
"21/01/31","14:20",0.0,8.6,66.3,1023.9,355.0,3.2,5.2,358.6,0.10,2.7,8.8,"14:12:32",1
"21/01/31","14:30",0.0,8.4,68.2,1024.4,352.5,3.2,6.0,348.9,0.10,2.9,9.0,"14:25:28",1
"21/01/31","14:40",0.0,8.1,69.7,1024.1,342.1,4.0,11.1,340.4,0.15,2.9,9.0,"14:38:28",1
"21/01/31","14:50",0.0,7.7,71.1,1024.4,341.3,4.9,8.8,345.1,0.13,2.8,9.0,"14:45:14",1
"21/01/31","15:00",0.0,7.9,72.1,1023.9,337.9,4.5,7.0,346.2,0.15,3.2,8.9,"14:53:54",1
"21/01/31","15:10",0.0,8.1,71.6,1023.9,338.2,4.0,9.1,331.5,0.18,3.3,9.0,"15:00:08",1
"21/01/31","15:20",0.0,8.4,69.9,1023.9,327.0,4.7,7.7,341.6,0.24,3.3,8.9,"15:18:36",1
"21/01/31","15:30",0.0,8.1,68.8,1024.4,330.1,4.1,6.8,340.0,0.10,2.8,8.8,"15:28:32",1
"21/01/31","15:40",0.0,8.1,69.2,1024.4,321.1,4.5,5.8,323.4,0.16,2.8,8.8,"15:36:54",1
"21/01/31","15:50",0.0,8.1,68.0,1023.9,331.6,4.2,7.3,320.9,0.15,2.6,8.8,"15:48:40",1
"21/01/31","16:00",0.0,8.3,66.9,1024.4,343.4,3.5,6.3,344.2,0.14,2.6,8.8,"15:51:12",1
"21/01/31","16:10",0.0,8.2,66.0,1023.9,344.7,3.4,6.3,347.2,0.08,2.3,8.8,"16:01:28",1
"21/01/31","16:20",0.0,7.8,67.4,1024.1,342.3,3.1,5.7,11.2,0.03,2.2,8.7,"16:13:04",1
"21/01/31","16:30",0.0,7.8,68.0,1023.9,339.5,3.2,5.4,337.4,0.06,2.3,8.7,"16:23:28",1
"21/01/31","16:40",0.0,7.9,67.7,1024.4,333.9,3.5,5.8,334.0,0.04,2.3,8.7,"16:34:08",1
"21/01/31","16:50",0.0,7.8,67.7,1024.4,330.3,3.7,6.0,341.0,0.02,2.2,8.5,"16:43:04",1
"21/01/31","17:00",0.0,7.6,68.2,1024.4,330.2,3.2,5.0,338.6,0.00,2.2,8.2,"16:50:40",1
"21/01/31","17:10",0.0,7.2,69.0,1024.6,329.5,2.7,4.2,332.1,0.00,1.9,8.4,"17:00:08",1
"21/01/31","17:20",0.0,6.9,70.0,1024.6,331.3,2.2,4.8,338.6,0.00,1.9,8.2,"17:10:24",1
"21/01/31","17:30",0.0,6.7,70.6,1024.4,329.4,2.0,2.9,328.4,0.00,1.8,8.2,"17:24:16",1
"21/01/31","17:40",0.0,6.3,71.6,1024.4,333.2,2.2,3.1,328.7,0.00,1.6,8.1,"17:33:04",1
"21/01/31","17:50",0.0,5.9,72.7,1024.6,332.5,2.2,3.3,336.3,0.00,1.4,8.1,"17:45:20",1
"21/01/31","18:00",0.0,5.6,73.5,1024.1,325.3,2.1,3.6,333.9,0.00,1.3,8.0,"17:53:28",1
"21/01/31","18:10",0.0,4.9,74.3,1024.4,230.8,0.5,1.2,301.1,0.00,0.8,7.8,"18:00:08",1
"21/01/31","18:20",0.0,4.5,75.4,1024.1,255.6,1.0,1.2,249.7,0.00,0.6,7.5,"18:14:32",1
"21/01/31","18:30",0.0,4.4,76.2,1023.9,255.4,1.1,2.1,264.8,0.00,0.6,7.5,"18:20:02",1
"21/01/31","18:40",0.0,4.5,76.8,1024.1,284.3,2.3,3.4,309.2,0.00,0.8,7.3,"18:33:54",1
"21/01/31","18:50",0.0,4.5,77.6,1023.9,328.7,2.3,4.3,324.9,0.00,1.0,7.4,"18:42:24",1
"21/01/31","19:00",0.0,4.3,78.2,1023.9,318.5,1.1,2.1,354.6,0.00,0.9,7.2,"18:50:16",1
"21/01/31","19:10",0.0,4.1,78.8,1024.1,321.2,2.0,2.9,316.8,0.00,0.8,7.4,"19:08:16",1
"21/01/31","19:20",0.0,3.6,79.6,1024.1,330.7,1.7,3.1,331.3,0.00,0.4,7.2,"19:12:08",1
"21/01/31","19:30",0.0,3.3,80.5,1024.1,311.4,2.1,2.9,316.9,0.00,0.3,7.1,"19:27:44",1
"21/01/31","19:40",0.0,3.1,81.5,1024.4,307.1,2.2,3.4,324.2,0.00,0.3,6.9,"19:37:12",1
"21/01/31","19:50",0.0,2.9,82.7,1024.1,300.5,2.1,3.5,323.8,0.00,0.3,6.9,"19:41:04",1
"21/01/31","20:00",0.0,2.6,83.7,1024.4,297.0,2.0,3.6,303.3,0.00,0.2,6.8,"19:51:20",1
"21/01/31","20:10",0.0,2.5,84.7,1024.4,295.4,2.3,2.8,299.8,0.00,0.2,6.6,"20:02:32",1
"21/01/31","20:20",0.0,2.4,85.6,1024.4,318.4,2.7,3.7,312.6,0.00,0.3,6.5,"20:13:44",1
"21/01/31","20:30",0.0,2.4,86.3,1024.6,310.2,2.5,4.2,314.5,0.00,0.4,6.6,"20:29:28",1
"21/01/31","20:40",0.0,2.2,86.8,1024.6,276.6,1.8,2.8,327.6,0.00,0.3,6.4,"20:30:32",1
"21/01/31","20:50",0.0,2.0,87.2,1024.9,286.1,1.6,2.2,277.4,0.00,0.1,6.2,"20:40:32",1
"21/01/31","21:00",0.0,1.7,87.8,1024.4,324.6,2.6,3.4,336.3,0.00,-0.1,6.4,"20:56:32",1
"21/01/31","21:10",0.0,1.3,88.4,1024.1,303.5,2.1,3.1,320.8,0.00,-0.4,6.3,"21:01:28",1
"21/01/31","21:20",0.0,1.6,89.0,1024.4,297.2,2.7,3.3,303.5,0.00,0.0,6.1,"21:19:04",1
"21/01/31","21:30",0.0,1.7,89.3,1024.4,284.2,2.2,2.9,286.0,0.00,0.2,6.1,"21:28:08",1
"21/01/31","21:40",0.0,1.6,89.6,1024.4,303.6,1.6,2.8,306.4,0.00,0.1,6.1,"21:31:28",1
"21/01/31","21:50",0.0,1.3,89.9,1024.6,296.2,1.8,2.9,329.0,0.00,-0.1,6.0,"21:46:48",1
"21/01/31","22:00",0.0,1.2,90.5,1024.4,317.2,2.5,3.6,321.4,0.00,-0.1,5.9,"21:55:04",1
"21/01/31","22:10",0.0,1.3,90.7,1024.4,305.1,2.2,3.1,326.2,0.00,0.0,6.1,"22:03:04",1
"21/01/31","22:20",0.0,1.3,90.8,1024.4,302.6,2.0,2.5,330.7,0.00,0.0,5.9,"22:18:48",1
"21/01/31","22:30",0.0,0.9,91.1,1024.4,317.4,2.1,2.6,334.3,0.00,-0.3,5.5,"22:22:08",1
"21/01/31","22:40",0.0,0.8,91.5,1024.4,314.2,2.0,2.7,326.0,0.00,-0.4,5.7,"22:36:08",1
"21/01/31","22:50",0.0,0.7,91.5,1024.1,325.6,1.8,2.9,329.4,0.00,-0.5,5.6,"22:47:12",1
"21/01/31","23:00",0.0,0.1,91.9,1023.9,253.0,0.3,1.6,329.4,0.00,-1.0,5.7,"22:50:08",1
"21/01/31","23:10",0.0,0.0,92.2,1023.9,324.4,1.7,3.6,337.5,0.00,-1.1,5.5,"23:09:04",1
"21/01/31","23:20",0.0,-0.5,92.5,1024.1,301.0,1.1,2.6,331.6,0.00,-1.5,5.5,"23:10:08",1
"21/01/31","23:30",0.0,-0.5,92.8,1024.1,292.0,0.8,1.4,324.8,0.00,-1.5,5.4,"23:29:44",1
"21/01/31","23:40",0.0,0.1,92.9,1024.1,319.2,1.5,2.4,313.8,0.00,-0.9,5.4,"23:34:56",1
"21/01/31","23:50",0.0,-0.2,92.9,1024.1,313.2,0.7,1.4,320.3,0.00,-1.2,5.3,"23:43:12",1
"21/01/31","24:00",0.0,-0.5,93.2,1023.4,303.2,1.0,1.6,326.2,0.00,-1.4,5.0,"23:55:52",1
